• In India
  • List of Countries
  • For 7 days
  • Water Temperature
  • Satellite Maps
  • Weather Map
  • Weather Widgets
  • user-avatar
    Login

    Hourly Weather Zamahora

    Today, 22 September, Saturday

    Time Temperature Precipitation Wind Pressure Humidity
    00:00 +14°C° 0 mm 3 mps 675 mmHg 71%
    01:00 +14°C° 0 mm 3 mps 675 mmHg 68%
    02:00 +13°C° 0 mm 3 mps 675 mmHg 69%
    03:00 +13°C° 0 mm 3 mps 674 mmHg 73%
    04:00 +13°C° 0 mm 3 mps 674 mmHg 74%
    05:00 +13°C° 0 mm 3 mps 674 mmHg 75%
    06:00 +13°C° 0 mm 3 mps 674 mmHg 77%
    07:00 +14°C° 0 mm 2 mps 675 mmHg 79%
    08:00 +15°C° 0 mm 2 mps 675 mmHg 80%
    09:00 +16°C° 0 mm 1 mps 675 mmHg 84%
    10:00 +19°C° 0 mm 1 mps 676 mmHg 79%
    11:00 +19°C° 0 mm 2 mps 676 mmHg 77%
    12:00 +15°C° 0 mm 4 mps 676 mmHg 97%
    13:00 +14°C° 1.1 mm 3 mps 676 mmHg 100%
    14:00 +13°C° 1.5 mm 3 mps 675 mmHg 100%
    15:00 +13°C° 0.7 mm 2 mps 675 mmHg 100%
    16:00 +13°C° 0.2 mm 2 mps 675 mmHg 100%
    17:00 +12°C° 2.5 mm 2 mps 674 mmHg 100%
    18:00 +8°C° 8.3 mm 4 mps 674 mmHg 100%
    19:00 +8°C° 4.6 mm 3 mps 675 mmHg 100%
    20:00 +9°C° 1.5 mm 1 mps 674 mmHg 100%
    21:00 +10°C° 0 mm 1 mps 674 mmHg 100%
    22:00 +9°C° 0 mm 1 mps 675 mmHg 100%
    23:00 +8°C° 0 mm 2 mps 675 mmHg 100%

    Tomorrow, 23 September, Sunday

    Time Temperature Precipitation Wind Pressure Humidity
    00:00 +8°C° 0 mm 2 mps 675 mmHg 100%
    01:00 +8°C° 0 mm 2 mps 675 mmHg 95%
    02:00 +8°C° 0 mm 2 mps 675 mmHg 91%
    03:00 +7°C° 0 mm 2 mps 675 mmHg 91%
    04:00 +7°C° 0 mm 2 mps 675 mmHg 89%
    05:00 +6°C° 0 mm 2 mps 675 mmHg 91%
    06:00 +6°C° 0 mm 2 mps 675 mmHg 96%
    07:00 +6°C° 0 mm 2 mps 675 mmHg 97%
    08:00 +7°C° 0 mm 2 mps 676 mmHg 98%
    09:00 +8°C° 0 mm 3 mps 676 mmHg 93%
    10:00 +8°C° 0 mm 4 mps 677 mmHg 88%
    11:00 +10°C° 0 mm 4 mps 677 mmHg 88%
    12:00 +10°C° 0 mm 4 mps 678 mmHg 83%
    13:00 +10°C° 0 mm 5 mps 678 mmHg 80%
    14:00 +11°C° 0 mm 4 mps 678 mmHg 82%
    15:00 +11°C° 0 mm 4 mps 678 mmHg 86%
    16:00 +11°C° 0 mm 4 mps 677 mmHg 83%
    17:00 +10°C° 0 mm 4 mps 677 mmHg 84%
    18:00 +9°C° 0 mm 3 mps 677 mmHg 86%
    19:00 +8°C° 0 mm 2 mps 676 mmHg 89%
    20:00 +8°C° 0 mm 2 mps 676 mmHg 89%
    21:00 +8°C° 0 mm 2 mps 676 mmHg 92%
    22:00 +7°C° 0 mm 3 mps 675 mmHg 95%
    23:00 +6°C° 0 mm 4 mps 674 mmHg 97%

    Day after tomorrow, 24 September, Monday

    Time Temperature Precipitation Wind Pressure Humidity
    00:00 +6°C° 0 mm 5 mps 673 mmHg 96%
    01:00 +7°C° 0 mm 6 mps 672 mmHg 95%
    02:00 +7°C° 0 mm 5 mps 671 mmHg 96%
    03:00 +7°C° 0 mm 5 mps 670 mmHg 94%
    04:00 +8°C° 0 mm 7 mps 669 mmHg 95%
    05:00 +8°C° 0 mm 7 mps 669 mmHg 92%
    06:00 +8°C° 0 mm 6 mps 668 mmHg 90%
    07:00 +9°C° 0 mm 7 mps 665 mmHg 86%
    08:00 +9°C° 0 mm 15 mps 662 mmHg 86%
    09:00 +11°C° 0 mm 15 mps 663 mmHg 90%
    10:00 +12°C° 0.6 mm 14 mps 665 mmHg 97%
    11:00 +13°C° 1.8 mm 12 mps 665 mmHg 94%
    12:00 +14°C° 0.1 mm 13 mps 666 mmHg 94%
    13:00 +13°C° 0.3 mm 12 mps 666 mmHg 93%
    14:00 +13°C° 0.4 mm 13 mps 665 mmHg 92%
    15:00 +12°C° 0.2 mm 10 mps 667 mmHg 93%
    16:00 +10°C° 0 mm 8 mps 668 mmHg 88%
    17:00 +8°C° 0 mm 7 mps 669 mmHg 86%
    18:00 +7°C° 0 mm 6 mps 669 mmHg 87%
    19:00 +5°C° 0 mm 6 mps 670 mmHg 86%
    20:00 +5°C° 0 mm 6 mps 670 mmHg 89%
    21:00 +5°C° 0 mm 4 mps 671 mmHg 88%
    22:00 +5°C° 0 mm 5 mps 671 mmHg 85%
    23:00 +3°C° 0 mm 5 mps 671 mmHg 87%

    25 September, Tuesday

    Time Temperature Precipitation Wind Pressure Humidity
    00:00 +2°C° 0 mm 5 mps 671 mmHg 89%
    01:00 +2°C° 0 mm 6 mps 671 mmHg 93%
    02:00 +2°C° 0 mm 6 mps 672 mmHg 95%

    26 September, Wednesday

    Time Temperature Precipitation Wind Pressure Humidity

    27 September, Thursday

    Time Temperature Precipitation Wind Pressure Humidity
    Show more